Regional Weather Roundup
Issued by NWS

Home | Current Version | Previous Version | Text Only | Print | Product List | Glossary Off
Versions: 1 2 3 4 5 6 7 8 9 10 11 12 13 14 15 16 17 18 19 20 21 22 23 24 25 26 27 28 29 30 31 32 33 34 35 36 37 38 39 40 41 42 43 44 45 46 47 48 49 50

903
ASUS45 KCYS 282210
RWRWY

WYOMING REGIONAL WEATHER ROUNDUP
NATIONAL WEATHER SERVICE CHEYENNE WY
400 PM MDT THU JUL 28 2016

NOTE:  "FAIR" INDICATES FEW OR NO CLOUDS BELOW 12,000 FEET
WITH NO SIGNIFICANT WEATHER AND/OR OBSTRUCTIONS TO VISIBILITY.

WYZ001-282300-
YELLOWSTONE NATIONAL PARK

CITY           SKY/WX    TMP DP  RH WIND       PRES   REMARKS
LK YELLOWSTONE   N/A     76  28  17 MISG      30.36F
W YELLOWSTONE  NOT AVBL

$$
WYZ002>013-054>058-071-098>099-282300-
NORTHERN WYOMING

CITY           SKY/WX    TMP DP  RH WIND       PRES   REMARKS
JACKSON        SUNNY     82  25  12 NW9G25    30.24F
CODY           FAIR      77  52  41 NE5       30.20F
GREYBULL       FAIR      85  46  25 NW10G24   30.10F
WORLAND        FAIR      83  46  27 VRB3      30.12F
SHERIDAN       PTSUNNY   83  51  33 N8        30.15F
BUFFALO        FAIR      74  51  44 VRB6      30.22F
GILLETTE       FAIR      74  55  51 N7        30.17F
HULETT         CLOUDY    72  54  53 N7        30.18F
NEWCASTLE      FAIR      73  46  38 NW10      30.18F

$$
WYZ014>020-022>026-101>103-282300-
CENTRAL WYOMING

CITY           SKY/WX    TMP DP  RH WIND       PRES   REMARKS
BIG PINEY      FAIR      87  26  11 NW10G21   30.25F
PINEDALE       FAIR      82  25  12 W10G22    30.27S
DUBOIS         FAIR      82  23  11 NW12G23   30.26S
LANDER         FAIR      85  45  24 N10       30.15F
RIVERTON       FAIR      85  44  23 NE12G21   30.17F
CASPER         FAIR      82  45  27 NE12G22   30.19F
DOUGLAS          N/A    N/A N/A N/A MISG      30.19F

$$
WYZ021-027>030-104>119-282300-
SOUTHERN WYOMING

CITY           SKY/WX    TMP DP  RH WIND       PRES   REMARKS
EVANSTON       FAIR      89  25  10 W25G32    30.28F
KEMMERER         N/A    N/A N/A N/A W15G33    30.28F
FORT BRIDGER   FAIR      92  26   9 W24G30    30.28F
ROCK SPRINGS   FAIR      91  19   7 W21G31    30.20F
DIXON          FAIR      90  30  12 W12G22    30.22F
RAWLINS        FAIR      83  43  24 N14       30.22F
SARATOGA       FAIR      82  41  23 N10G18    30.24F
LARAMIE        FAIR      80  48  32 VRB7G22   30.27F
CHEYENNE       FAIR      75  54  47 VRB5      30.24F
TORRINGTON     FAIR      79  50  36 VRB6      30.14F
PINE BLUFFS    FAIR      73  52  46 E6        30.21S

$$




USA.gov is the U.S. government's official web portal to all federal, state and local government web resources and services.